Tracking 27188 objects as of 1-Apr-2023
HD Live streaming from Space Station
objects crossing your sky now

STARLINK-5632

Track STARLINK-5632 now!
10-day predictions
STARLINK-5632 is classified as:


NORAD ID: 55400
Int'l Code: 2023-014K
Perigee: 364.3 km
Apogee: 368.2 km
Inclination: 70.0 °
Period: 91.7 minutes
Semi major axis: 6737 km
RCS: Unknown
Launch date: January 31, 2023
Source: United States (US)
Launch site: AIR FORCE WESTERN TEST RANGE (AFWTR)
Your satellite tracking list
Your tracking list is empty




NASA's NSSDC Master Catalog

Two Line Element Set (TLE):
1 55400U 23014K   23090.81047744  .00009213  00000-0  78324-4 0  9996
2 55400  70.0003 283.4583 0002888 261.4221  98.6647 15.69919230  9489
Source of the keplerian elements: AFSPC